Location: Mahannah Oil Field
(37.4664°N, 96.6003°W)
Time: 02:50:10
(UTC+00:00)

A-11 Canister half - Pass Details

Date: 01 February 2021
Orbit: 1525 x 1684 km, 47.3° (Epoch: 02 March)

Event Time Altitude Azimuth Distance (km) Brightness Sun altitude
Rises 19:27:19 0° 251° (WSW) 4,669 11.9 34.5°
Reaches altitude 10° 19:30:24 10° 255° (WSW) 3,686 11.5 34.4°
Maximum altitude 19:39:36 65° 336° (NNW) 1,660 9.5 33.9°
Drops below altitude 10° 19:48:59 10° 58° (ENE) 3,748 10.7 33.3°
Sets 19:52:09 0° 62° (ENE) 4,752 11.2 33.1°
